[[{"header":{"parameterUnit":"m.s-1","parameterCategory":1,"la1":30.2992,"la2":30.254,"lo1":-89.0895,"lo2":-89.0443,"dy":0.0025,"dx":0.0025,"nx":19,"ny":19,"refTime":"2026-03-07T09:00:00:Z","depth":0,"parameterNumber":2,"parameterNumberName":"U-component_of_WINDS"},"data":[0,0,0,0.6694,0.6694,0.6676,0.6676,0.6653,0.6653,0,0,0,0,0,0,0,0,0,0,0,0.6697,0.6697,0.6694,0.6694,0.6676,0.6676,0.6653,0.6653,0,0,0,0,0,0,0,0,0,0,0,0.6697,0.6697,0.6697,0.6693,0.6676,0.6676,0.6653,0.6667,0,0,0,0,0,0,0,0,0,0,0.6684,0.6684,0.6697,0.6697,0.6693,0.6676,0.6676,0.6668,0.6666,0.666,0,0.6653,0,0.6653,0.6651,0.6651,0,0,0,0.6695,0.6685,0.6683,0.6696,0.6693,0.6676,0.6685,0.6667,0.6665,0.6658,0.6653,0.6652,0.6652,0.6651,0.6651,0.661,0.661,0,0,0.6696,0.6693,0.6684,0.6682,0.6683,0.6685,0.6684,0.6666,0.666,0.6653,0.6651,0.6652,0.6651,0.6651,0.661,0.661,0,0,0,0.6698,0.6693,0.6691,0.6682,0.6679,0.6685,0.6683,0.6661,0.666,0.6651,0.6652,0.6651,0.665,0.6611,0.661,0.6594,0,0,0,0.6699,0.6694,0.6692,0.6689,0.668,0.6669,0.6679,0.6662,0.666,0.6652,0.6651,0.665,0.6611,0.6611,0.6595,0.6587,0,0,0,0.6699,0.6694,0.6691,0.6689,0.6681,0.667,0.6668,0.6661,0.666,0.6651,0.665,0.6611,0.6611,0.6596,0.6589,0.6577,0,0,0,0.6698,0.6676,0.6691,0.6666,0.6681,0.666,0.6669,0.6652,0.6643,0.665,0.6611,0.661,0.6597,0.659,0.6578,0.6567,0.6561,0,0,0.6668,0.6672,0.6658,0.6671,0.6646,0.6663,0.6636,0.663,0.6632,0.6618,0.6617,0.6595,0.6589,0.6577,0.6532,0.6528,0,0,0,0.6647,0.6637,0.6631,0.6622,0.6618,0.6614,0.6613,0.6612,0.66,0.6624,0.6587,0.6584,0.6577,0.6572,0.6568,0.6564,0.6608,0.6608,0.6608,0.6598,0.6604,0.6582,0.6586,0.6577,0.6578,0.6573,0.6571,0.6578,0.657,0.6565,0.6537,0.6531,0.6528,0.6524,0.6559,0.6559,0.6559,0.6559,0.6555,0.6542,0.6554,0.6537,0.6544,0.6531,0.6532,0.6538,0.6528,0.654,0.6535,0.6548,0.6524,0.652,0.6558,0.6558,0.6558,0.6558,0.6559,0.6523,0.6519,0.6518,0.6509,0.6501,0.6507,0.6497,0.6503,0.6509,0.6503,0.6501,0.6501,0.6503,0.6502,0.6502,0.6502,0.6502,0.6501,0.6501,0.6491,0.6492,0.6482,0.6479,0.6476,0.6473,0.6476,0.6474,0.6473,0.6479,0.6479,0.6488,0.652,0.6528,0.65,0.65,0.65,0.6501,0.6501,0.6446,0.6458,0.6444,0.6441,0.6439,0.6433,0.6442,0.6438,0.6437,0.6432,0.6444,0.6466,0.647,0.6473,0.648,0.6441,0.6441,0.6441,0.6441,0.642,0.6424,0.6412,0.6408,0.6405,0.6413,0.6399,0.6403,0.6409,0.641,0.6416,0.6426,0.6429,0.6432,0.6436,0.6443,0.6395,0.6395,0.6395,0.6394,0.6398,0.6384,0.639,0.639,0.6391,0.6379,0.6376,0.6385,0.6393,0.6411,0.6413,0.6429,0.6433,0.6441,0.6447,0.6459,0,0]},{"header":{"parameterUnit":"m.s-1","parameterCategory":1,"la1":30.2992,"la2":30.254,"lo1":-89.0895,"lo2":-89.0443,"dy":0.0025,"dx":0.0025,"nx":19,"ny":19,"refTime":"2026-03-07T09:00:00:Z","depth":0,"parameterNumber":3,"parameterNumberName":"V-component_of_WINDS"},"data":[0,0,0,2.6738,2.674,2.6811,2.6812,2.6897,2.6898,0,0,0,0,0,0,0,0,0,0,0,2.6713,2.6713,2.6738,2.674,2.6811,2.6812,2.6897,2.6898,0,0,0,0,0,0,0,0,0,0,0,2.6712,2.6713,2.6714,2.674,2.6811,2.6812,2.6897,2.6845,0,0,0,0,0,0,0,0,0,0,2.6776,2.6749,2.6713,2.6714,2.674,2.6811,2.6812,2.6843,2.6848,2.6862,0,2.6873,0,2.6887,2.6903,2.6904,0,0,0,2.6742,2.6744,2.6767,2.6714,2.6741,2.6811,2.678,2.6846,2.6852,2.687,2.6874,2.6878,2.6889,2.6904,2.6904,2.6977,2.6977,0,0,2.6738,2.6723,2.6763,2.6771,2.676,2.6777,2.6782,2.685,2.6854,2.6875,2.688,2.689,2.6904,2.6905,2.6977,2.6977,0,0,0,2.6725,2.672,2.6742,2.6768,2.6781,2.6779,2.6785,2.6851,2.6859,2.6881,2.6891,2.6905,2.6906,2.6977,2.6977,2.6974,0,0,0,2.6723,2.6712,2.674,2.6731,2.678,2.6817,2.6784,2.6855,2.6863,2.6891,2.6905,2.6907,2.6977,2.6977,2.6974,2.6975,0,0,0,2.6709,2.6711,2.672,2.673,2.6761,2.6816,2.6829,2.6857,2.6869,2.6904,2.6907,2.6976,2.6977,2.6973,2.6974,2.6992,0,0,0,2.669,2.6713,2.672,2.675,2.676,2.6813,2.6828,2.6868,2.6898,2.6905,2.6977,2.6977,2.6973,2.6974,2.6991,2.7004,2.7008,0,0,2.6711,2.6715,2.6735,2.6743,2.6791,2.6804,2.6852,2.6893,2.6909,2.6954,2.6956,2.6974,2.6974,2.6991,2.7032,2.7034,0,0,0,2.6737,2.675,2.6767,2.6795,2.6828,2.6858,2.6893,2.6909,2.6948,2.6929,2.6984,2.6985,2.6996,2.7003,2.7005,2.7017,2.6979,2.6979,2.6979,2.6743,2.6766,2.6801,2.6833,2.686,2.6899,2.6924,2.6952,2.6964,2.6977,2.699,2.7012,2.702,2.7021,2.7033,2.6998,2.6998,2.6998,2.6998,2.6777,2.6801,2.6821,2.6862,2.6887,2.6921,2.6961,2.6969,2.7006,2.7003,2.7013,2.7009,2.7024,2.7035,2.6998,2.6998,2.6998,2.6998,2.6998,2.6784,2.68,2.6821,2.6867,2.6901,2.6933,2.6969,2.6989,2.7008,2.7018,2.7037,2.7037,2.7041,2.7026,2.7026,2.7026,2.7026,2.7026,2.7026,2.6784,2.6807,2.6835,2.6876,2.6899,2.6932,2.6974,2.6998,2.7029,2.7041,2.7042,2.7055,2.7021,2.7013,2.7027,2.7027,2.7027,2.7027,2.7027,2.6811,2.6809,2.6852,2.6876,2.6927,2.6961,2.6988,2.7035,2.7058,2.7076,2.7088,2.7059,2.7064,2.7063,2.7056,2.7081,2.7081,2.7081,2.7081,2.6817,2.6823,2.6874,2.6911,2.695,2.698,2.7031,2.7066,2.7101,2.7117,2.7116,2.7109,2.7107,2.7114,2.7111,2.7106,2.7143,2.7143,2.7143,2.6836,2.6848,2.6886,2.6922,2.6965,2.7002,2.7052,2.7095,2.7134,2.7146,2.7131,2.7128,2.7117,2.7112,2.7122,2.7117,2.7107,0,0]}]]